Location: Unspecified
(51.5147°N, 7.4673°E)
Time: 03:57:32
(UTC+01:00)

Explorer 7 - Pass Details

Date: 19 February 2026
Orbit: 430 x 542 km, 50.2° (Epoch: 8 March)

Event Time Altitude Azimuth Distance (km) Brightness Sun altitude
Rises 20:18:42 0° 281° (W) 2,531 11.7 -23.3°
Reaches altitude 10° 20:21:02 10° 269° (W) 1,671 10.3 -23.7°
Enters shadow 20:24:15 28° 211° (SSW) 971 8.2 -24.1°
Maximum altitude 20:24:17 28° 210° (SSW) 972 - -24.2°
Drops below altitude 10° 20:27:39 10° 151° (SSE) 1,725 - -24.7°
Sets 20:30:05 0° 139° (SE) 2,629 - -25.0°
